KC1ELF Weather Reports


time (UTC)temp
F
wind
direction
speed
knots
gust
knots
rain 1hr
in
rain 24hr
in
rain mn
in
humidity
%
barometer
mb
20260505024135 59 272 1.7 7.8 0.00 0.00 0.00 52 1009.5
20260505023036 60 307 3.5 7.8 0.00 0.00 0.00 52 1009.5
20260505022140 60 248 2.6 7.8 0.00 0.00 0.00 51 1009.5
20260505021137 60 198 1.7 7.0 0.00 0.00 0.00 50 1009.5
20260505020135 61 205 2.6 7.0 0.00 0.00 0.00 50 1009.5
20260505015135 61 293 1.7 9.6 0.00 0.00 0.00 49 1009.4
20260505014135 61 299 3.5 10.4 0.00 0.00 0.00 48 1009.2
20260505013135 62 277 2.6 10.4 0.00 0.00 0.00 48 1008.9
20260505012135 62 280 3.5 10.4 0.00 0.00 0.00 47 1008.7
20260505011137 63 307 2.6 11.3 0.00 0.00 0.00 47 1008.7
20260505010136 63 276 5.2 11.3 0.00 0.00 0.00 45 1008.5
20260505005135 64 287 6.1 11.3 0.00 0.00 0.00 45 1008.1
20260505004135 64 246 6.1 11.3 0.00 0.00 0.00 44 1007.8
20260505003136 65 287 3.5 11.3 0.00 0.00 0.00 43 1007.7
20260505002136 66 165 4.3 11.3 0.00 0.00 0.00 41 1007.5
20260505001135 66 277 4.3 9.6 0.00 0.00 0.00 40 1007.1
20260505000135 67 80 4.3 9.6 0.00 0.00 0.00 37 1006.9
20260504235136 67 333 3.5 9.6 0.00 0.00 0.00 37 1006.7
20260504234138 67 296 3.5 9.6 0.00 0.00 0.00 37 1006.3
20260504233136 68 20 1.7 9.6 0.00 0.00 0.00 36 1006.1
20260504232135 69 234 2.6 9.6 0.00 0.00 0.00 35 1006.2
20260504231135 69 237 5.2 9.6 0.00 0.00 0.00 35 1005.9
20260504230135 69 299 4.3 9.6 0.00 0.00 0.00 35 1005.9
20260504225135 70 294 2.6 9.6 0.00 0.00 0.00 35 1005.8
20260504224135 71 343 3.5 11.3 0.00 0.00 0.00 34 1005.7
20260504223135 71 28 5.2 11.3 0.00 0.00 0.00 34 1005.6
20260504222137 71 297 4.3 11.3 0.00 0.00 0.00 33 1005.6
20260504221136 71 327 4.3 11.3 0.00 0.00 0.00 34 1005.7
20260504220138 71 283 4.3 13.0 0.00 0.00 0.00 33 1005.7
20260504215135 72 190 4.3 13.0 0.00 0.00 0.00 33 1005.7
20260504214136 73 317 4.3 13.0 0.00 0.00 0.00 31 1005.7
20260504213135 72 327 1.7 15.6 0.00 0.00 0.00 32 1005.6
20260504212135 73 78 5.2 15.6 0.00 0.00 0.00 32 1005.7
20260504211135 73 16 5.2 15.6 0.00 0.00 0.00 31 1005.7
20260504210137 74 257 4.3 15.6 0.00 0.00 0.00 32 1005.7
20260504205136 73 124 3.5 15.6 0.00 0.00 0.00 32 1005.6
20260504204136 73 316 7.0 15.6 0.00 0.00 0.00 31 1005.5
20260504203138 73 339 5.2 13.9 0.00 0.00 0.00 31 1005.3
20260504202135 73 9 4.3 13.9 0.00 0.00 0.00 31 1005.5
20260504201137 73 266 5.2 13.9 0.00 0.00 0.00 30 1005.5
20260504200135 72 267 5.2 12.2 0.00 0.00 0.00 30 1005.7
20260504195135 74 344 4.3 14.8 0.00 0.00 0.00 29 1005.7
20260504194135 74 286 4.3 14.8 0.00 0.00 0.00 29 1005.7
20260504193137 75 303 7.0 19.1 0.00 0.00 0.00 29 1005.7
20260504192136 76 322 4.3 19.1 0.00 0.00 0.00 28 1005.7
20260504191135 77 333 6.1 19.1 0.00 0.00 0.00 28 1005.6
20260504190136 78 273 8.7 19.1 0.00 0.00 0.00 27 1005.9
20260504185136 76 351 3.5 19.1 0.00 0.00 0.00 28 1005.9
20260504184137 75 309 8.7 19.1 0.00 0.00 0.00 29 1006.0
20260504183136 73 328 8.7 14.8 0.00 0.00 0.00 30 1006.2
20260504182136 74 3 7.0 17.4 0.00 0.00 0.00 29 1006.1
20260504181136 75 266 7.8 17.4 0.00 0.00 0.00 28 1006.3
20260504180136 77 353 8.7 17.4 0.00 0.00 0.00 27 1006.3
20260504175136 76 241 4.3 17.4 0.00 0.00 0.00 30 1006.3
20260504174135 75 262 5.2 17.4 0.00 0.00 0.00 30 1006.4
20260504173135 74 1 8.7 17.4 0.00 0.00 0.00 31 1006.5
20260504172136 72 107 5.2 14.8 0.00 0.00 0.00 33 1006.5
20260504171135 71 302 5.2 14.8 0.00 0.00 0.00 33 1006.6
20260504170137 70 7 6.1 15.6 0.00 0.00 0.00 33 1006.7
20260504160136 69 261 6.1 13.0 0.00 0.00 0.00 36 1006.8
20260504151136 66 264 5.2 14.8 0.00 0.00 0.00 38 1007.8
20260504150136 66 325 4.3 14.8 0.00 0.00 0.00 41 1008.0
20260504141135 63 316 5.2 13.9 0.00 0.00 0.00 44 1008.4
20260504140136 63 278 6.1 13.9 0.00 0.00 0.00 45 1008.5
20260504130135 57 350 5.2 8.7 0.00 0.00 0.00 52 1009.2
20260504120136 50 279 2.6 7.0 0.00 0.00 0.00 62 1009.5
20260504110136 46 295 0.9 3.5 0.00 0.00 0.00 66 1009.5
20260504100135 43 274 0.9 2.6 0.00 0.00 0.00 70 1009.5
20260504090136 43 285 0.9 2.6 0.00 0.00 0.00 70 1009.4
20260504081136 43 243 0.9 2.6 0.00 0.00 0.00 71 1009.5
20260504080136 42 285 0.0 1.7 0.00 0.00 0.00 71 1009.5
20260504070136 41 242 0.0 1.7 0.00 0.00 0.00 73 1009.3
20260504060138 40 289 0.0 3.5 0.00 0.00 0.00 74 1009.4
20260504050134 37 283 1.7 2.6 0.00 0.00 0.00 75 1009.5
20260504045135 37 283 1.7 2.6 0.00 0.00 0.00 75 1009.5
20260504044134 37 285 1.7 2.6 0.00 0.00 0.00 75 1009.5
20260504043135 37 293 0.9 2.6 0.00 0.00 0.00 75 1009.5
20260504042135 37 298 1.7 2.6 0.00 0.00 0.00 74 1009.4
20260504041135 37 301 0.9 2.6 0.00 0.00 0.00 74 1009.4
20260504040135 37 301 0.9 2.6 0.00 0.00 0.00 73 1009.3
20260504035134 38 290 0.9 2.6 0.00 0.00 0.00 72 1009.2
20260504034135 38 296 0.9 2.6 0.00 0.00 0.00 72 1009.1
20260504033135 38 299 0.9 1.7 0.00 0.00 0.00 71 1009.1
20260504032135 38 281 0.9 1.7 0.00 0.00 0.00 70 1009.2
20260504031135 39 278 0.9 1.7 0.00 0.00 0.00 70 1009.3
20260504030135 39 285 0.9 1.7 0.00 0.00 0.00 69 1009.2
20260504025134 39 282 0.9 1.7 0.00 0.00 0.00 69 1009.1